TimeCDT,TemperatureF,Dew PointF,Humidity,Sea Level PressureIn,VisibilityMPH,Wind Direction,Wind SpeedMPH,Gust SpeedMPH,PrecipitationIn,Events,Conditions,WindDirDegrees,DateUTC
12:53 AM,61.0,55.9,83,30.20,10.0,Calm,Calm,-,N/A,,Clear,0,2013-05-25 05:53:00
1:53 AM,59.0,55.0,87,30.20,10.0,Calm,Calm,-,N/A,,Clear,0,2013-05-25 06:53:00
2:53 AM,59.0,55.0,87,30.20,10.0,Calm,Calm,-,N/A,,Clear,0,2013-05-25 07:53:00
3:53 AM,60.1,55.0,83,30.21,10.0,Calm,Calm,-,N/A,,Clear,0,2013-05-25 08:53:00
4:53 AM,60.1,54.0,80,30.22,10.0,Calm,Calm,-,N/A,,Clear,0,2013-05-25 09:53:00
5:53 AM,60.1,55.0,83,30.23,10.0,Calm,Calm,-,N/A,,Clear,0,2013-05-25 10:53:00
6:53 AM,61.0,54.0,78,30.25,10.0,Calm,Calm,-,N/A,,Clear,0,2013-05-25 11:53:00
7:53 AM,62.1,55.9,80,30.25,10.0,ENE,5.8,-,N/A,,Clear,70,2013-05-25 12:53:00
8:53 AM,69.1,53.1,57,30.27,10.0,SE,8.1,-,N/A,,Clear,130,2013-05-25 13:53:00
9:53 AM,72.0,52.0,49,30.26,10.0,SE,6.9,-,N/A,,Clear,140,2013-05-25 14:53:00
10:53 AM,75.0,53.1,46,30.25,10.0,Variable,5.8,-,0.00,,Clear,0,2013-05-25 15:53:00
11:53 AM,77.0,54.0,45,30.25,10.0,SSE,5.8,-,N/A,,Clear,160,2013-05-25 16:53:00
12:53 PM,78.1,55.9,46,30.23,10.0,South,3.5,-,N/A,,Clear,190,2013-05-25 17:53:00
1:53 PM,80.1,57.9,47,30.21,10.0,South,4.6,-,N/A,,Clear,190,2013-05-25 18:53:00
2:53 PM,82.0,57.9,44,30.20,10.0,South,3.5,-,N/A,,Clear,180,2013-05-25 19:53:00
3:53 PM,82.0,59.0,45,30.19,10.0,Calm,Calm,-,N/A,,Clear,0,2013-05-25 20:53:00
4:53 PM,84.0,60.1,44,30.17,10.0,ENE,6.9,-,N/A,,Clear,60,2013-05-25 21:53:00
5:53 PM,82.0,60.1,47,30.15,10.0,ESE,6.9,-,N/A,,Clear,110,2013-05-25 22:53:00
6:53 PM,80.1,59.0,48,30.13,10.0,SE,4.6,-,N/A,,Clear,130,2013-05-25 23:53:00
7:53 PM,75.0,63.0,66,30.13,10.0,Calm,Calm,-,N/A,,Clear,0,2013-05-26 00:53:00
8:53 PM,71.1,62.1,73,30.13,10.0,Calm,Calm,-,N/A,,Clear,0,2013-05-26 01:53:00
9:53 PM,72.0,59.0,64,30.14,10.0,SE,4.6,-,0.00,,Clear,130,2013-05-26 02:53:00
10:53 PM,71.1,59.0,66,30.16,10.0,SSE,3.5,-,N/A,,Clear,150,2013-05-26 03:53:00
11:53 PM,66.0,61.0,84,30.14,10.0,Calm,Calm,-,0.00,,Clear,0,2013-05-26 04:53:00